Portada
METAR-TAF:

METAR-TAF

Aeroports :

Hughenden, Austràlia

latitud: 20-48-54S, longitud: 144-13-30E, altitud: 318 m

Observació

L'informe es va fer fa 47 minuts, a les 06:00 UTC
Vent 13 kt del Est/Sud-Est, variant entre Nord-Est i Est/Sud-Est
Temperatura 35°C
Humitat 22%
Pressió 1011 hPa
Visibilitat 10 km o més
Núvols disperses a una alçada de 8500 ft

METAR: YHUG 300600Z AUTO 12013KT 050V120 9999 // SCT085 35/10 Q1011

Hora: 16:47 (06:47 UTC)


TAF: manca

Observacions i pronòstics meteorològics de més de 4000 aeroports (METAR i TAF).

Les estacions disponibles són els punts grocs i vermells al mapa.

Posi el ratolí al punt desitjat per veure el nom de l'estació.

Feu clic per veure les observacions i els pronòstics meteorològics.

Per canviar el mapa: feu clic els botons verds amb una creu de color negre per apropar; al botó verd amb un guió per allunyar la imatge; o en les fletxes verdes per a mapes adjacents.


METAR-TAF: